Regional Weather Roundup
Issued by NWS

Home | Current Version | Previous Version | Text Only | Print | Product List | Glossary On
Versions: 1 2 3 4 5 6 7 8 9 10 11 12 13 14 15 16 17 18 19 20 21 22 23 24 25 26 27 28 29 30 31 32 33 34 35 36 37 38 39 40 41 42 43 44 45 46 47 48 49 50
146
ASUS45 KBOI 030710
RWRID

IDAHO REGIONAL WEATHER ROUNDUP
NATIONAL WEATHER SERVICE BOISE ID
1200 AM MST SAT DEC 03 2016

NOTE: "FAIR" INDICATES FEW OR NO CLOUDS BELOW 12000 FEET
WITH NO SIGNIFICANT WEATHER AND/OR OBSTRUCTIONS TO VISIBILITY

IDZ012-014-030800-
SOUTHWEST IDAHO


CITY           SKY/WX    TMP DP  RH WIND       PRES   REMARKS
BOISE          CLOUDY    33  25  72 S6        30.27S WCI  28
CALDWELL       CLOUDY    33  26  75 E9        30.29  WCI  25
MOUNTAIN HOME  CLOUDY    30  25  81 E8        30.27F WCI  23
$$

IDZ016-017-030800-
SOUTHCENTRAL IDAHO


CITY           SKY/WX    TMP DP  RH WIND       PRES   REMARKS
BURLEY         CLOUDY    28  19  69 SW10      30.24F WCI  19
JEROME         CLOUDY    28  21  75 S6        30.25F WCI  22
TWIN FALLS     CLOUDY    30  18  60 S9        30.24F WCI  22
$$

IDZ019>023-030800-
SOUTHEAST IDAHO


CITY           SKY/WX    TMP DP  RH WIND       PRES   REMARKS
IDAHO FALLS    CLOUDY    26  19  74 S12       30.22F WCI  16
POCATELLO      CLOUDY    27  18  69 SW12      30.25F WCI  17
REXBURG        CLOUDY    23  17  78 S9        30.22F WCI  13
$$

IDZ006-010-011-018-031-032-030800-
CENTRAL IDAHO MOUNTAINS


CITY           SKY/WX    TMP DP  RH WIND       PRES   REMARKS
MCCALL         NOT AVBL
HAILEY         CLOUDY    23  23 100 CALM      30.21S
STANLEY          N/A     23  15  71 W3        30.14R
SALMON         CLOUDY    28  19  69 CALM      30.14F
CHALLIS        CLOUDY    26  20  77 NW5       30.13  WCI  20
$$

IDZ002-004-006-007-026-030800-
NORTHERN IDAHO


CITY           SKY/WX    TMP DP  RH WIND       PRES   REMARKS
LEWISTON       CLOUDY    42  31  64 S13       30.11
LOWELL           N/A     36  34  92 CALM      30.19F
COEUR D`ALENE  LGT SNOW  33  32  96 S7        30.05F FOG     WCI  27
MULLAN PASS    LGT SNOW  22  20  92 SW9       29.94F FOG     WCI  12
$$




USA.gov is the U.S. government's official web portal to all federal, state and local government web resources and services.